CXBN

operational
NORAD ID: 38762 Int'l Des: 2012-048 Owner: MSUKY Country: US
LEO

About CXBN

Description loading...

Live Position

Loading 3D Globe...

Upcoming Passes

Altitude History

Altitude vs Time

uPlot chart will show altitude changes over time

Two-Line Element Set

1 38762U 12048E 26061.46564766 .00019267 00000-0 77459-3 0 9990
2 38762 64.6619 169.9428 0109727 205.8679 153.6938 15.19548314102056
Epoch: Mar 2, 2026 • Age: 30 hours

Current Status

Altitude 518.8 km
Velocity 7.61 km/s
Sub-Earth Point -59.16°S, 132.87°W
Launch Date Sep 13, 2012
Age 13.4 years
Type other

Technical Details

Classification Payload
Mass 3.00 kg
Dry Mass 3.00 kg
Total Mass 3.00 kg
Length 0.20 m
Diameter 0.10 m
Span 0.50 m
Shape Box+4 pan
Manufacturer MSUKY
Bus Type Cubesat 2U
Phase Status In Orbit
Owner/State MSUKY/US

Large Constellations

Loading constellations...